1497549601.03,52754,20.75,74146.8,4.03,1.17,1.67,0,*7C
1497549602.27,52755,20.75,74146.3,4.05,1.25,1.79,0,*75
1497549603.49,52756,20.75,74146.3,4.07,1.43,1.71,0,*7C
1497549604.74,52757,20.75,74150.0,4.05,1.43,1.67,0,*78
1497549605.96,52758,20.75,74148.5,4.07,1.25,1.47,0,*77
1497549607.21,52759,20.75,74150.3,4.05,1.43,1.59,0,*7B
1497549608.44,52760,20.75,74148.3,4.07,1.37,1.55,0,*7C
1497549609.65,52761,20.75,74146.5,4.07,1.43,1.79,0,*70
1497549610.9,52762,20.75,74150.0,4.05,1.25,1.47,0,*7C
1497549612.14,52763,20.75,74150.8,4.07,1.33,1.37,0,*7F
1497549613.39,52764,20.75,74150.0,4.05,1.43,1.67,0,*78
1497549614.59,52765,20.75,74148.8,4.07,1.59,1.79,0,*7F
1497549615.79,52766,20.75,74146.8,4.07,1.59,1.83,0,*79
1497549616.99,52767,20.75,74150.8,4.07,1.59,1.83,0,*78
1497549618.19,52768,20.75,74150.0,4.07,1.59,1.79,0,*72
1497549619.44,52769,20.75,74148.0,4.09,1.63,1.89,0,*7B
1497549620.65,52770,20.75,74148.8,4.11,1.75,2.01,0,*7E
1497549621.87,52771,20.75,74150.3,4.09,1.83,2.01,0,*7F
1497549623.08,52772,20.75,74148.3,4.11,1.75,2.09,0,*74
1497549624.3,52773,20.75,74150.5,4.11,1.89,2.09,0,*76
1497549625.53,52774,20.75,74150.0,4.11,1.85,1.97,0,*79
1497549626.75,52775,20.75,74148.5,4.11,1.89,2.01,0,*78
1497549627.99,52776,20.75,74150.8,4.11,1.85,2.09,0,*7F
1497549629.21,52777,20.75,74148.3,4.11,1.85,1.97,0,*7A
1497549630.41,52778,20.75,74150.3,4.11,1.83,1.97,0,*73
1497549631.67,52779,20.75,74152.0,4.13,1.93,2.05,0,*79
1497549632.89,52780,20.75,74152.5,4.13,1.75,1.89,0,*70
1497549634.1,52781,20.75,74152.8,4.11,1.89,1.89,0,*70
1497549635.32,52782,20.75,74152.3,4.11,1.89,1.97,0,*7C
1497549636.57,52783,20.75,74154.0,4.13,1.89,1.93,0,*7B
1497549637.81,52784,20.75,74152.5,4.17,1.89,1.97,0,*7C
1497549639.04,52785,20.75,74150.5,4.13,1.79,1.89,0,*79
1497549640.28,52786,20.75,74154.8,4.17,1.89,1.89,0,*71
1497549641.51,52787,20.75,74154.8,4.13,1.85,1.79,0,*77
1497549642.74,52788,20.75,74154.8,4.13,1.79,1.85,0,*78
1497549644.0,52789,20.75,74154.0,4.13,1.93,1.85,0,*7D
1497549645.24,52790,20.75,74154.0,4.17,1.89,1.71,0,*71
1497549646.47,52791,20.75,74158.5,4.13,1.75,1.55,0,*71
1497549647.72,52792,20.75,74156.5,4.13,1.63,1.51,0,*71
1497549648.97,52793,20.75,74156.3,4.13,1.85,1.63,0,*79
1497549650.22,52794,20.75,74156.0,4.13,1.89,1.55,0,*77
1497549651.45,52795,20.75,74152.5,4.17,1.79,1.47,0,*7E
1497549652.69,52796,20.69,74152.0,4.17,1.89,1.59,0,*7D
1497549653.92,52797,20.75,74156.0,4.17,1.83,1.55,0,*7A
1497549655.15,52798,20.75,74154.5,4.17,1.79,1.55,0,*70
1497549656.37,52799,20.75,74156.0,4.17,1.83,1.59,0,*78
1497549657.59,52800,20.75,74154.3,4.19,1.89,1.67,0,*7E
1497549658.82,52801,20.75,74156.8,4.17,1.79,1.33,0,*7F
1497549660.07,52802,20.75,74156.0,4.17,1.67,1.25,0,*74
1497549661.32,52803,20.69,74152.8,4.17,1.59,1.33,0,*7F
1497549662.58,52804,20.69,74152.8,4.17,1.71,1.33,0,*72
1497549663.84,52805,20.75,74156.3,4.17,1.71,1.09,0,*7A
1497549665.06,52806,20.75,74158.3,4.17,1.55,0.97,0,*49
1497549666.32,52807,20.75,74152.8,4.17,1.37,0.71,0,*44
1497549667.58,52808,20.75,74154.5,4.17,1.09,0.51,0,*44
1497549668.8,52809,20.75,74156.0,4.13,1.01,0.37,0,*49
1497549670.03,52810,20.75,74158.3,4.13,1.01,0.33,0,*45
1497549671.26,52811,20.75,74156.3,4.17,0.75,0.13,0,*70
1497549672.48,52812,20.75,74158.8,4.13,0.59,-0.07,0,*61
1497549673.7,52813,20.75,74158.5,4.13,0.55,-0.07,0,*6C
1497549674.92,52814,20.75,74158.0,4.13,0.43,-0.27,0,*5E
1497549676.13,52815,20.75,74160.5,4.13,0.37,-0.29,0,*52
1497549677.35,52816,20.75,74158.5,4.13,0.21,-0.45,0,*5C
1497549678.52,52817,20.75,74158.5,4.11,0.05,-0.57,0,*6A
1497549679.72,52818,20.75,74158.5,4.11,0.25,-0.29,0,*5E
1497549680.89,52819,20.75,74158.0,4.11,0.43,-0.19,0,*5C
1497549682.09,52820,20.75,74156.8,4.11,0.29,-0.33,0,*52
1497549683.25,52821,20.75,74158.8,4.11,0.01,-0.57,0,*6B
1497549684.42,52822,20.75,74156.3,4.11,-0.07,-0.57,0,*43
1497549685.65,52823,20.75,74156.8,4.09,-0.45,-0.93,0,*75
1497549686.88,52824,20.75,74154.8,4.09,-0.49,-0.93,0,*7E
1497549688.08,52825,20.69,74154.0,4.07,-0.53,-0.89,0,*71
1497549689.28,52826,20.69,74152.0,4.07,-0.53,-0.85,0,*7E
1497549690.48,52827,20.69,74152.5,4.07,-0.49,-0.85,0,*74
1497549691.66,52828,20.75,74158.0,4.07,-0.37,-0.65,0,*7C
1497549692.83,52829,20.75,74156.8,4.07,-0.37,-0.65,0,*7D
1497549694.04,52830,20.75,74154.8,4.09,-0.41,-0.69,0,*76
1497549695.25,52831,20.69,74154.5,4.07,-0.65,-0.97,0,*7E
1497549696.45,52832,20.75,74154.0,4.07,-0.77,-1.13,0,*43
1497549697.66,52833,20.75,74158.5,4.07,-0.77,-1.09,0,*49
1497549698.9,52834,20.75,74152.8,4.05,-0.73,-1.01,0,*40
1497549700.1,52835,20.75,74154.8,4.07,-0.65,-1.13,0,*47
1497549701.34,52836,20.69,74152.8,4.07,-0.89,-1.35,0,*42
1497549702.58,52837,20.75,74156.3,4.07,-0.89,-1.35,0,*43
1497549703.84,52838,20.75,74156.0,4.05,-0.89,-1.39,0,*42
1497549705.11,52839,20.75,74152.5,4.05,-1.13,-1.39,0,*71
1497549706.38,52840,20.75,74156.8,4.05,-1.09,-1.35,0,*78
1497549707.59,52841,20.75,74156.3,4.05,-1.25,-1.25,0,*76
1497549708.78,52842,20.75,74152.8,4.07,-1.25,-1.21,0,*73
1497549710.04,52843,20.75,74154.0,4.05,-1.35,-0.89,0,*42
1497549711.27,52844,20.75,74158.5,4.05,-1.59,-0.97,0,*40
1497549712.47,52845,20.69,74152.8,4.07,-1.75,-0.97,0,*4D
1497549713.66,52846,20.69,74156.0,4.07,-1.75,-0.73,0,*44
1497549714.87,52847,20.69,74156.3,4.05,-1.63,-0.45,0,*45
1497549716.08,52848,20.75,74156.3,4.07,-1.63,-0.23,0,*48
1497549717.28,52849,20.69,74158.3,4.05,-1.59,-0.03,0,*70
1497549718.52,52850,20.75,74160.3,4.07,-1.87,-0.23,0,*4B
1497549719.72,52851,20.75,74160.0,4.07,-1.59,0.29,0,*6E
1497549720.92,52852,20.75,74156.5,4.07,-1.25,0.59,0,*61
1497549722.16,52853,20.69,74156.3,4.07,-1.13,0.75,0,*6B
1497549723.39,52854,20.75,74158.3,4.07,-0.97,0.75,0,*51
1497549724.56,52855,20.75,74160.3,4.07,-0.77,0.97,0,*52
1497549725.76,52856,20.75,74156.5,4.07,-0.65,1.13,0,*6F
1497549726.96,52857,20.75,74160.3,4.07,-0.61,1.09,0,*61
1497549728.16,52858,20.69,74158.8,4.07,-0.53,1.09,0,*6F
1497549729.35,52859,20.75,74158.8,4.07,-0.61,0.95,0,*5B
1497549730.52,52860,20.75,74156.8,4.07,-0.53,0.97,0,*52
1497549731.75,52861,20.75,74158.3,4.07,-0.27,1.21,0,*6C
1497549732.98,52862,20.69,74158.0,4.07,-0.27,1.09,0,*65
1497549734.18,52863,20.75,74158.3,4.07,-0.03,1.33,0,*5B
1497549735.4,52864,20.75,74158.8,4.07,0.21,1.43,0,*46
1497549736.61,52865,20.75,74158.0,4.11,0.33,1.51,0,*40
1497549737.85,52866,20.75,74156.5,4.09,0.17,1.29,0,*43
1497549739.1,52867,20.69,74156.8,4.09,0.55,1.51,0,*4B
1497549740.34,52868,20.75,74160.0,4.09,0.55,1.59,0,*4C
1497549741.59,52869,20.69,74158.0,4.09,0.75,1.63,0,*46
1497549742.81,52870,20.69,74156.3,4.11,0.87,1.63,0,*4A
1497549744.02,52871,20.75,74158.5,4.11,0.67,1.37,0,*44
1497549745.26,52872,20.75,74156.8,4.09,0.67,1.29,0,*41
1497549746.52,52873,20.75,74158.5,4.09,0.87,1.37,0,*41
1497549747.77,52874,20.69,74156.5,4.09,0.87,1.37,0,*46
1497549748.97,52875,20.69,74156.8,4.11,1.05,1.59,0,*7D
1497549750.23,52876,20.69,74154.0,4.09,1.13,1.63,0,*79
1497549751.48,52877,20.69,74152.0,4.09,1.25,1.63,0,*7D
1497549752.71,52878,20.69,74152.3,4.11,1.17,1.47,0,*7C
1497549753.94,52879,20.75,74156.8,4.11,1.25,1.59,0,*73
1497549755.16,52880,20.75,74154.5,4.11,1.25,1.63,0,*7C
1497549756.39,52881,20.75,74156.5,4.11,1.25,1.47,0,*7B
1497549757.61,52882,20.69,74156.0,4.11,1.25,1.47,0,*78
1497549758.81,52883,20.69,74156.0,4.11,1.25,1.41,0,*7F
1497549760.04,52884,20.75,74158.8,4.11,1.29,1.47,0,*72
1497549761.27,52885,20.75,74156.3,4.11,1.37,1.47,0,*7C
1497549762.47,52886,20.69,74154.0,4.11,1.41,1.51,0,*79
1497549763.73,52887,20.69,74156.5,4.13,1.55,1.63,0,*7E
1497549764.95,52888,20.75,74158.8,4.11,1.43,1.59,0,*7D
1497549766.17,52889,20.75,74156.8,4.11,1.47,1.51,0,*70
1497549767.4,52890,20.69,74156.0,4.11,1.37,1.47,0,*78
1497549768.65,52891,20.69,74154.8,4.13,1.51,1.51,0,*7C
1497549769.9,52892,20.69,74156.3,4.13,1.51,1.67,0,*7A
1497549771.12,52893,20.69,74152.8,4.11,1.59,1.63,0,*75
1497549772.34,52894,20.69,74152.0,4.11,1.51,1.71,0,*79
1497549773.56,52895,20.75,74156.3,4.11,1.59,1.71,0,*70
1497549774.76,52896,20.69,74154.5,4.11,1.41,1.63,0,*79
1497549776.01,52897,20.69,74158.0,4.13,1.43,1.55,0,*7D
1497549777.27,52898,20.69,74158.3,4.13,1.17,1.33,0,*73
1497549778.49,52899,20.69,74156.3,4.13,1.05,1.29,0,*7A
1497549779.72,52900,20.75,74156.5,4.13,1.21,1.41,0,*73
1497549780.95,52901,20.75,74156.5,4.13,1.21,1.41,0,*72
1497549782.18,52902,20.69,74156.3,4.09,1.05,1.25,0,*7E
1497549783.41,52903,20.69,74158.5,4.11,1.13,1.25,0,*71
1497549784.64,52904,20.69,74156.3,4.09,1.05,1.29,0,*74
1497549785.84,52905,20.69,74158.5,4.11,1.25,1.41,0,*70
1497549787.07,52906,20.69,74158.5,4.11,1.29,1.47,0,*79
1497549788.33,52907,20.69,74154.0,4.13,1.33,1.55,0,*72
1497549789.56,52908,20.75,74158.8,4.11,1.25,1.47,0,*7B
1497549790.75,52909,20.75,74156.3,4.11,1.25,1.41,0,*7C
1497549791.99,52910,20.69,74156.5,4.11,1.13,1.37,0,*70
1497549793.22,52911,20.69,74158.0,4.11,1.17,1.47,0,*72
1497549794.45,52912,20.69,74156.5,4.11,1.25,1.37,0,*77
1497549795.69,52913,20.69,74152.3,4.11,1.17,1.37,0,*77
1497549796.95,52914,20.69,74154.8,4.09,1.17,1.29,0,*76
1497549798.21,52915,20.75,74156.3,4.09,1.17,1.37,0,*78
1497549799.44,52916,20.75,74158.0,4.11,1.17,1.29,0,*7D
1497549800.67,52917,20.69,74154.8,4.11,1.25,1.37,0,*72
1497549801.91,52918,20.69,74156.5,4.11,1.29,1.29,0,*7E
1497549803.17,52919,20.69,74154.8,4.09,1.29,1.37,0,*79
1497549804.43,52920,20.69,74156.5,4.09,1.29,1.25,0,*70
1497549805.67,52921,20.69,74158.3,4.11,1.29,1.25,0,*78
1497549806.9,52922,20.69,74156.3,4.11,1.37,1.29,0,*78
1497549808.16,52923,20.69,74152.3,4.09,1.37,1.29,0,*70
1497549809.39,52924,20.69,74152.3,4.09,1.41,1.25,0,*7A
1497549810.65,52925,20.69,74154.5,4.09,1.29,1.13,0,*70
1497549811.89,52926,20.69,74152.3,4.09,1.29,1.01,0,*70
1497549813.12,52927,20.69,74152.3,4.09,1.01,0.75,0,*49
1497549814.34,52928,20.69,74152.8,4.09,1.25,0.97,0,*4C
1497549815.6,52929,20.69,74148.8,4.09,1.13,0.67,0,*47
1497549816.82,52930,20.69,74150.3,4.09,1.05,0.67,0,*48
1497549818.07,52931,20.69,74150.8,4.09,1.25,0.87,0,*45
1497549819.3,52932,20.69,74150.0,4.09,1.37,0.97,0,*44
1497549820.57,52933,20.69,74150.0,4.09,1.37,0.91,0,*43
1497549821.8,52934,20.69,74154.0,4.07,1.13,0.63,0,*41
1497549823.03,52935,20.69,74150.3,4.07,1.13,0.71,0,*43
1497549824.27,52936,20.69,74148.8,4.07,1.21,0.75,0,*45
1497549825.5,52937,20.75,74150.8,4.07,1.13,0.75,0,*45
1497549826.74,52938,20.69,74148.8,4.07,1.33,0.75,0,*48
1497549827.97,52939,20.69,74148.3,4.07,1.25,0.75,0,*4E
1497549829.2,52940,20.69,74148.0,4.07,1.33,0.75,0,*47
1497549830.45,52941,20.69,74152.8,4.05,1.59,0.87,0,*45
1497549831.7,52942,20.75,74152.5,4.05,1.47,0.75,0,*44
1497549832.93,52943,20.69,74148.0,4.07,1.37,0.71,0,*44
1497549834.16,52944,20.75,74154.3,4.07,1.43,0.71,0,*40
1497549835.38,52945,20.69,74150.0,4.07,1.43,0.71,0,*41
1497549836.64,52946,20.69,74150.3,4.05,1.37,0.51,0,*41
1497549837.9,52947,20.69,74148.5,4.05,1.37,0.51,0,*40
1497549839.15,52948,20.69,74148.8,4.05,1.25,0.29,0,*43
1497549840.42,52949,20.69,74150.8,4.05,1.13,0.21,0,*4F
1497549841.66,52950,20.69,74148.0,4.05,0.95,0.13,0,*79
1497549842.88,52951,20.69,74150.3,4.05,0.97,0.25,0,*7F
1497549844.11,52952,20.69,74152.0,4.05,0.97,0.37,0,*7F
1497549845.31,52953,20.75,74152.3,4.07,0.97,0.47,0,*7B
1497549846.51,52954,20.69,74154.0,4.03,0.97,0.47,0,*78
1497549847.72,52955,20.69,74154.8,4.03,0.83,0.47,0,*7C
1497549848.96,52956,20.69,74148.8,4.03,1.17,0.91,0,*48
1497549850.16,52957,20.69,74150.3,4.03,1.17,1.05,0,*75
1497549851.39,52958,20.69,74150.0,4.03,1.09,0.83,0,*4A
1497549852.65,52959,20.69,74148.0,4.05,1.33,1.13,0,*7C
1497549853.91,52960,20.69,74154.8,4.05,1.43,1.21,0,*70
1497549855.17,52961,20.69,74154.0,4.05,1.37,1.25,0,*76
1497549856.41,52962,20.69,74152.8,4.03,1.33,1.21,0,*73
1497549857.61,52963,20.69,74150.3,4.03,1.41,1.33,0,*74
1497549858.86,52964,20.69,74154.5,4.05,1.47,1.37,0,*77
1497549860.12,52965,20.69,74154.8,4.05,1.43,1.33,0,*76
1497549861.38,52966,20.69,74148.3,4.05,1.37,1.25,0,*71
1497549862.64,52967,20.69,74152.8,4.05,1.37,1.25,0,*70
1497549863.89,52968,20.75,74152.8,4.05,1.47,1.33,0,*7F
1497549865.14,52969,20.69,74150.3,4.05,1.47,1.25,0,*79
1497549866.4,52970,20.69,74150.8,4.05,1.25,0.87,0,*4C
1497549867.66,52971,20.75,74156.8,4.05,1.21,0.87,0,*49
1497549868.89,52972,20.69,74154.5,4.05,1.01,0.87,0,*48
1497549870.12,52973,20.69,74156.3,4.05,1.09,0.97,0,*40
1497549871.38,52974,20.69,74152.3,4.05,1.13,1.09,0,*7A
1497549872.62,52975,20.69,74158.5,4.05,1.01,1.09,0,*78
1497549873.82,52976,20.69,74154.0,4.05,1.01,0.97,0,*4D
1497549875.07,52977,20.69,74154.8,4.05,0.87,0.59,0,*71
1497549876.31,52978,20.69,74158.8,4.05,0.95,0.41,0,*74
1497549877.54,52979,20.69,74154.8,4.05,1.01,0.37,0,*48
1497549878.74,52980,20.69,74158.8,4.05,1.01,0.09,0,*73
1497549879.99,52981,20.69,74154.3,4.05,0.95,-0.23,0,*5B
1497549881.21,52982,20.69,74156.0,4.05,0.71,-0.53,0,*55
1497549882.41,52983,20.69,74156.5,4.03,0.55,-0.81,0,*5B
1497549883.63,52984,20.69,74156.5,4.03,0.33,-1.13,0,*66
1497549884.83,52985,20.69,74154.3,4.03,0.05,-1.43,0,*57
1497549886.03,52986,20.69,74156.3,4.03,-0.27,-1.75,0,*4C
1497549887.24,52987,20.69,74156.5,4.03,-0.65,-2.03,0,*49
1497549888.46,52988,20.69,74158.3,4.03,-1.05,-2.79,0,*7C
1497549889.64,52989,20.69,74154.8,4.03,-1.55,-3.27,0,*72
1497549890.83,52990,20.69,74156.5,4.03,-2.19,-3.39,0,*7E
1497549892.03,52991,20.69,74156.5,4.03,-2.67,-3.39,0,*76
1497549893.24,52992,20.69,74158.8,4.01,-3.03,-3.23,0,*7F
1497549894.43,52993,20.69,74154.8,4.03,-3.27,-2.87,0,*75
1497549895.65,52994,20.69,74154.8,4.03,-3.63,-2.79,0,*73
1497549896.89,52995,20.69,74152.8,4.03,-3.67,-2.51,0,*7C
1497549898.11,52996,20.75,74156.3,4.03,-3.67,-2.31,0,*79
1497549899.35,52997,20.69,74156.5,4.01,-3.87,-2.47,0,*75
1497549900.58,52998,20.69,74158.0,4.03,-4.21,-2.75,0,*72
1497549901.82,52999,20.69,74158.3,4.01,-5.03,-2.95,0,*7E
1497549903.06,53000,20.69,74154.0,4.03,-5.11,-2.55,0,*7B
1497549904.31,53001,20.69,74158.3,4.01,-4.85,-1.95,0,*7B
1497549905.53,53002,20.69,74152.0,4.01,-4.61,-1.67,0,*7F
1497549906.75,53003,20.69,74156.0,4.01,-4.25,-1.55,0,*7F
1497549908.0,53004,20.69,74156.5,4.01,-4.25,-1.83,0,*73
1497549909.24,53005,20.69,74158.0,4.01,-4.09,-1.91,0,*7F
1497549910.49,53006,20.69,74156.8,4.01,-4.09,-2.07,0,*70
1497549911.71,53007,20.69,74160.5,4.01,-3.95,-2.35,0,*72
1497549912.94,53008,20.69,74162.0,4.01,-3.87,-2.31,0,*7A
1497549914.21,53009,20.69,74162.5,3.97,-3.47,-2.51,0,*79
1497549915.39,53010,20.69,74158.0,3.99,-3.23,-3.23,0,*79
1497549916.58,53011,20.69,74162.5,3.99,-3.19,-3.95,0,*7C
1497549917.78,53012,20.69,74158.5,3.99,-3.31,-4.99,0,*7E
1497549919.03,53013,20.69,74160.8,3.99,-3.59,-6.27,0,*76
1497549920.22,53014,20.69,74162.3,3.99,-4.13,-7.53,0,*7A
1497549921.46,53015,20.69,74160.3,3.99,-5.15,-9.49,0,*79
1497549922.66,53016,20.69,74160.3,3.99,-6.43,-10.89,0,*4E
1497549923.92,53017,20.69,74162.8,3.99,-7.73,-11.63,0,*48
1497549925.18,53018,20.69,74160.3,3.97,-8.89,-11.63,0,*43
1497549926.41,53019,20.69,74162.3,3.99,-9.23,-11.63,0,*4D
1497549927.62,53020,20.69,74160.3,3.99,-11.15,-12.97,0,*73
1497549928.85,53021,20.69,74160.5,3.99,-14.15,-13.79,0,*76
1497549930.1,53022,20.69,74160.3,3.97,-16.23,-13.51,0,*76
1497549931.35,53023,20.69,74162.0,3.97,-17.59,-13.07,0,*78
1497549932.58,53024,20.69,74158.3,3.97,-18.49,-12.29,0,*7C
1497549933.84,53025,20.69,74156.5,3.97,-18.79,-11.63,0,*73
1497549935.09,53026,20.69,74158.0,3.95,-19.07,-10.79,0,*70
1497549936.3,53027,20.75,74162.8,3.93,-19.13,-10.31,0,*7E
1497549937.51,53028,20.69,74158.5,3.93,-19.07,-9.83,0,*45
1497549938.72,53029,20.69,74156.8,3.93,-18.93,-9.31,0,*41
1497549939.94,53030,20.69,74162.5,3.89,-18.55,-8.93,0,*41
1497549941.16,53031,20.69,74158.0,3.89,-17.93,-8.33,0,*4F
1497549942.42,53032,20.69,74154.8,3.87,-17.25,-8.11,0,*4F
1497549943.66,53033,20.69,74156.0,3.87,-16.75,-7.99,0,*45
1497549944.93,53034,20.69,74154.3,3.87,-16.17,-7.99,0,*46
1497549946.17,53035,20.69,74158.5,3.87,-15.63,-8.03,0,*4B
1497549947.37,53036,20.69,74156.8,3.85,-15.21,-8.17,0,*49
1497549948.56,53037,20.69,74160.5,3.85,-14.61,-8.17,0,*4D
1497549949.82,53038,20.69,74156.5,3.85,-14.05,-8.07,0,*41
1497549951.06,53039,20.69,74158.8,3.83,-13.61,-7.83,0,*40
1497549952.28,53040,20.69,74158.8,3.83,-13.43,-7.83,0,*4E
1497549953.52,53041,20.69,74156.0,3.83,-13.15,-7.65,0,*44
1497549954.74,53042,20.69,74160.8,3.81,-12.83,-7.19,0,*40
1497549955.96,53043,20.69,74156.5,3.81,-12.07,-6.35,0,*42
1497549957.15,53044,20.69,74152.0,3.81,-11.11,-5.35,0,*42
1497549958.39,53045,20.69,74160.8,3.79,-10.01,-4.69,0,*4C
1497549959.66,53046,20.69,74156.0,3.79,-9.11,-4.69,0,*76
1497549960.88,53047,20.69,74154.3,3.81,-9.01,-4.77,0,*7E
1497549962.1,53048,20.69,74160.8,3.79,-8.85,-4.99,0,*7B
1497549963.36,53049,20.69,74156.5,3.79,-8.81,-5.11,0,*7F
1497549964.58,53050,20.69,74154.8,3.79,-9.05,-5.35,0,*7C
1497549965.82,53051,20.69,74154.5,3.77,-9.41,-5.65,0,*76
1497549967.03,53052,20.69,74154.0,3.77,-9.61,-6.05,0,*72
1497549968.23,53053,20.69,74154.0,3.75,-9.97,-6.35,0,*7B
1497549969.45,53054,20.69,74156.0,3.75,-10.23,-6.59,0,*41
1497549970.67,53055,20.69,74156.5,3.75,-10.27,-6.59,0,*44
1497549971.86,53056,20.69,74158.8,3.77,-10.31,-6.51,0,*4A
1497549973.08,53057,20.69,74154.0,3.75,-10.27,-6.35,0,*4C
1497549974.29,53058,20.69,74154.3,3.75,-10.05,-6.05,0,*40
1497549975.54,53059,20.69,74156.5,3.75,-9.83,-5.69,0,*7E
1497549976.74,53060,20.69,74150.5,3.73,-9.71,-5.39,0,*7A
1497549977.98,53061,20.69,74148.8,3.73,-9.53,-5.19,0,*79
1497549979.21,53062,20.69,74154.5,3.73,-9.01,-5.03,0,*76
1497549980.43,53063,20.69,74148.8,3.73,-8.89,-4.73,0,*70
1497549981.62,53064,20.69,74152.3,3.73,-8.63,-4.37,0,*73
1497549982.83,53065,20.69,74154.5,3.71,-8.33,-4.13,0,*73
1497549984.04,53066,20.69,74154.5,3.71,-8.21,-4.05,0,*74
1497549985.25,53067,20.69,74150.5,3.73,-7.91,-4.17,0,*70
1497549986.5,53068,20.69,74154.0,3.71,-7.57,-4.21,0,*72
1497549987.72,53069,20.69,74154.0,3.67,-7.23,-4.17,0,*72
1497549988.95,53070,20.69,74154.3,3.71,-7.01,-4.17,0,*7D
1497549990.17,53071,20.69,74154.5,3.71,-6.81,-4.29,0,*78
1497549991.38,53072,20.69,74156.0,3.71,-6.69,-4.33,0,*76
1497549992.59,53073,20.69,74156.3,3.71,-6.59,-4.33,0,*74
1497549993.81,53074,20.69,74152.8,3.71,-6.51,-4.17,0,*7D
1497549995.02,53075,20.69,74154.3,3.67,-6.43,-4.09,0,*77
1497549996.24,53076,20.69,74156.3,3.67,-6.55,-3.91,0,*75
1497549997.48,53077,20.69,74152.3,3.67,-6.55,-3.71,0,*7A
1497549998.73,53078,20.69,74158.3,3.67,-6.63,-3.47,0,*75
1497549999.95,53079,20.69,74156.0,3.67,-6.69,-3.27,0,*78
1497550001.16,53080,20.69,74154.5,3.67,-6.73,-3.07,0,*77
1497550002.41,53081,20.69,74154.5,3.67,-6.93,-2.95,0,*72
1497550003.63,53082,20.69,74152.5,3.65,-6.85,-2.59,0,*74
1497550004.82,53083,20.69,74158.5,3.65,-6.81,-2.39,0,*77
1497550006.09,53084,20.69,74154.8,3.67,-6.63,-2.07,0,*73
1497550007.34,53085,20.69,74152.3,3.67,-6.51,-1.83,0,*7C
1497550008.58,53086,20.69,74156.0,3.67,-6.27,-1.55,0,*75
1497550009.82,53087,20.69,74156.5,3.67,-6.01,-1.43,0,*77
1497550011.06,53088,20.69,74156.0,3.67,-5.89,-1.29,0,*77
1497550012.3,53089,20.69,74154.8,3.67,-5.51,-1.09,0,*71
1497550013.54,53090,20.69,74156.5,3.67,-5.15,-0.81,0,*48
1497550014.78,53091,20.69,74152.5,3.67,-4.93,-0.77,0,*4F
1497550016.0,53092,20.69,74154.8,3.67,-4.69,-0.65,0,*4A
1497550017.21,53093,20.69,74154.3,3.67,-4.37,-0.53,0,*45
1497550018.43,53094,20.69,74154.0,3.67,-4.09,-0.41,0,*4C
1497550019.65,53095,20.69,74152.5,3.67,-3.79,-0.29,0,*43
1497550020.88,53096,20.69,74156.0,3.73,-3.55,-0.27,0,*45
1497550022.1,53097,20.69,74154.3,3.71,-3.15,-0.15,0,*43
1497550023.3,53098,20.69,74158.5,3.71,-2.91,-0.03,0,*76
1497550024.55,53099,20.69,74156.0,3.71,-2.63,0.13,0,*66
1497550025.76,53100,20.69,74156.5,3.73,-2.31,0.25,0,*67
1497550026.99,53101,20.69,74158.3,3.73,-2.11,0.29,0,*68
1497550028.24,53102,20.69,74154.8,3.71,-1.87,0.33,0,*6E
1497550029.47,53103,20.69,74158.5,3.71,-1.59,0.47,0,*6F
1497550030.68,53104,20.69,74154.3,3.73,-1.33,0.59,0,*69
1497550031.91,53105,20.69,74160.0,3.71,-1.17,0.75,0,*62
1497550033.16,53106,20.69,74158.5,3.71,-0.89,0.83,0,*5E
1497550034.39,53107,20.69,74156.5,3.71,-0.65,0.83,0,*5D
1497550035.61,53108,20.69,74158.5,3.71,-0.53,0.83,0,*57
1497550036.84,53109,20.69,74158.5,3.71,-0.41,0.83,0,*55
1497550038.04,53110,20.69,74152.5,3.73,-0.29,0.83,0,*51
1497550039.24,53111,20.69,74154.8,3.73,-0.15,0.91,0,*5C
1497550040.46,53112,20.69,74156.8,3.71,-0.03,0.83,0,*69
1497550041.68,53113,20.69,74158.5,3.71,0.09,0.75,0,*46
1497550042.89,53114,20.69,74158.3,3.73,0.13,0.59,0,*76
1497550044.11,53115,20.69,74158.3,3.73,0.17,0.51,0,*7B
1497550045.31,53116,20.69,74156.8,3.73,0.17,0.41,0,*79
1497550046.53,53117,20.69,74158.0,3.73,0.25,0.17,0,*7A
1497550047.71,53118,20.69,74160.8,3.73,0.25,0.01,0,*42
1497550048.94,53119,20.69,74156.8,3.71,0.25,-0.15,0,*59
1497550050.16,53120,20.69,74160.8,3.71,0.25,-0.29,0,*5C
1497550051.38,53121,20.69,74162.3,3.71,0.21,-0.53,0,*54
1497550052.6,53122,20.69,74160.0,3.71,0.21,-0.73,0,*55
1497550053.8,53123,20.69,74160.3,3.73,0.17,-0.73,0,*53
1497550055.02,53124,20.69,74156.5,3.71,-0.03,-0.85,0,*47
1497550056.19,53125,20.69,74160.0,3.73,-0.07,-0.69,0,*42
1497550057.4,53126,20.69,74158.0,3.73,-0.23,-0.69,0,*77
1497550058.6,53127,20.69,74158.3,3.71,-0.41,-0.61,0,*78
1497550059.78,53128,20.69,74156.0,3.73,-0.33,-0.49,0,*7A
1497550060.96,53129,20.69,74160.0,3.73,-0.45,-0.33,0,*77
1497550062.15,53130,20.69,74156.3,3.73,-0.49,-0.33,0,*73
1497550063.33,53131,20.69,74156.5,3.73,-0.33,-0.11,0,*7F
1497550064.52,53132,20.69,74158.8,3.73,-0.23,0.01,0,*61
1497550065.72,53133,20.69,74160.8,3.73,-0.15,0.13,0,*56
1497550066.92,53134,20.69,74158.0,3.71,-0.11,0.09,0,*6C
1497550068.11,53135,20.69,74160.5,3.73,-0.07,0.17,0,*67
1497550069.33,53136,20.69,74160.0,3.71,-0.11,0.13,0,*55
1497550070.53,53137,20.69,74160.8,3.73,-0.15,0.13,0,*52
1497550071.73,53138,20.69,74158.0,3.71,-0.15,0.09,0,*64
1497550072.9,53139,20.69,74160.3,3.73,-0.37,0.05,0,*6B
1497550074.1,53140,20.69,74160.5,3.73,-0.37,0.13,0,*52
1497550075.3,53141,20.69,74158.3,3.73,-0.57,0.13,0,*55
1497550076.51,53142,20.69,74162.8,3.71,-0.61,0.25,0,*54
1497550077.73,53143,20.69,74158.0,3.71,-0.61,0.37,0,*56
1497550078.95,53144,20.69,74156.5,3.71,-0.53,0.55,0,*54
1497550080.18,53145,20.69,74160.8,3.71,-0.49,0.71,0,*58
1497550081.39,53146,20.69,74160.8,3.71,-0.29,0.95,0,*57
1497550082.62,53147,20.69,74158.5,3.71,-0.11,1.17,0,*66
1497550083.82,53148,20.69,74162.0,3.67,-0.03,1.05,0,*5E
1497550085.06,53149,20.69,74160.0,3.67,0.17,1.25,0,*45
1497550086.3,53150,20.69,74160.0,3.71,0.25,1.29,0,*47
1497550087.54,53151,20.69,74158.0,3.71,0.55,1.43,0,*4D
1497550088.75,53152,20.69,74162.5,3.73,0.67,1.51,0,*4E
1497550089.99,53153,20.69,74158.0,3.71,0.75,1.43,0,*4D
1497550091.23,53154,20.69,74162.8,3.71,0.83,1.43,0,*43
1497550092.47,53155,20.69,74160.8,3.71,0.95,1.47,0,*41
1497550093.69,53156,20.69,74156.0,3.71,1.05,1.43,0,*7E
1497550094.94,53157,20.69,74156.8,3.71,1.17,1.47,0,*78
1497550096.2,53158,20.69,74160.8,3.71,1.17,1.43,0,*73
1497550097.45,53159,20.69,74156.3,3.71,1.17,1.47,0,*76
1497550098.7,53160,20.69,74158.0,3.71,1.21,1.43,0,*7D
1497550099.94,53161,20.69,74162.5,3.73,1.33,1.51,0,*7E
1497550101.2,53162,20.69,74158.0,3.71,1.33,1.55,0,*7B
1497550102.42,53163,20.69,74162.0,3.71,1.41,1.55,0,*7F
1497550103.62,53164,20.69,74158.0,3.73,1.47,1.75,0,*7E
1497550104.87,53165,20.69,74156.8,3.71,1.43,1.67,0,*7A
1497550106.12,53166,20.69,74160.8,3.71,1.43,1.67,0,*79
1497550107.36,53167,20.69,74162.0,3.71,1.43,1.71,0,*7F
1497550108.61,53168,20.69,74160.0,3.71,1.43,1.67,0,*77
1497550109.83,53169,20.69,74160.0,3.73,1.43,1.59,0,*79
1497550111.05,53170,20.69,74158.5,3.71,1.41,1.55,0,*7D
1497550112.27,53171,20.69,74158.0,3.71,1.41,1.59,0,*70
1497550113.5,53172,20.69,74156.8,3.73,1.37,1.59,0,*70
1497550114.72,53173,20.69,74158.0,3.73,1.47,1.71,0,*7C
1497550115.94,53174,20.69,74156.8,3.73,1.51,1.71,0,*7C
1497550117.16,53175,20.69,74156.5,3.73,1.59,1.71,0,*75
1497550118.39,53176,20.69,74156.3,3.73,1.55,1.59,0,*70
1497550119.64,53177,20.69,74156.3,3.71,1.55,1.55,0,*7F
1497550120.87,53178,20.69,74158.0,3.73,1.63,1.59,0,*7B
1497550122.09,53179,20.69,74160.3,3.73,1.63,1.63,0,*73
1497550123.35,53180,20.69,74160.8,3.71,1.55,1.55,0,*77
1497550124.59,53181,20.69,74156.8,3.71,1.59,1.55,0,*7A
1497550125.82,53182,20.69,74156.0,3.73,1.63,1.59,0,*7E